Time,TemperatureF,DewpointF,PressureIn,WindDirection,WindDirectionDegrees,WindSpeedMPH,WindSpeedGustMPH,Humidity,HourlyPrecipIn,Conditions,Clouds,dailyrainin,SoftwareType,DateUTC
2013-04-20 00:04:00,27.8,19.0,29.96,NE,51,0.0,-999.0,70,-99.99,,,0.00,weatherlink.com 1.10,2013-04-20 05:04:00,
2013-04-20 00:19:00,27.6,20.0,29.96,NW,322,4.0,-999.0,72,-99.99,,,0.00,weatherlink.com 1.10,2013-04-20 05:19:00,
2013-04-20 00:34:00,27.4,19.0,29.97,North,355,1.0,-999.0,71,-99.99,,,0.00,weatherlink.com 1.10,2013-04-20 05:34:00,
2013-04-20 00:49:00,27.0,19.0,29.99,North,360,0.0,-999.0,71,-99.99,,,0.00,weatherlink.com 1.10,2013-04-20 05:49:00,
2013-04-20 01:04:00,27.1,19.0,29.99,NNW,329,0.0,-999.0,72,-99.99,,,0.00,weatherlink.com 1.10,2013-04-20 06:04:00,
2013-04-20 01:19:00,27.0,19.0,30.00,North,360,3.0,-999.0,71,-99.99,,,0.00,weatherlink.com 1.10,2013-04-20 06:19:00,
2013-04-20 01:34:00,26.6,19.0,30.00,North,360,6.0,-999.0,73,-99.99,,,0.00,weatherlink.com 1.10,2013-04-20 06:34:00,
2013-04-20 01:49:00,26.5,19.0,30.01,WNW,284,2.0,-999.0,73,-99.99,,,0.00,weatherlink.com 1.10,2013-04-20 06:49:00,
2013-04-20 02:04:00,26.5,19.0,30.01,NNW,340,1.0,-999.0,73,-99.99,,,0.00,weatherlink.com 1.10,2013-04-20 07:04:00,
2013-04-20 02:19:00,26.2,19.0,30.02,West,263,5.0,-999.0,75,-99.99,,,0.00,weatherlink.com 1.10,2013-04-20 07:19:00,
2013-04-20 02:34:00,25.8,19.0,30.02,West,265,0.0,-999.0,75,-99.99,,,0.00,weatherlink.com 1.10,2013-04-20 07:34:00,
2013-04-20 02:49:00,25.8,20.0,30.03,WNW,292,0.0,-999.0,77,-99.99,,,0.00,weatherlink.com 1.10,2013-04-20 07:49:00,
2013-04-20 03:04:00,25.8,20.0,30.04,North,351,4.0,-999.0,77,-99.99,,,0.00,weatherlink.com 1.10,2013-04-20 08:04:00,
2013-04-20 03:19:00,25.4,19.0,30.04,NNW,338,1.0,-999.0,77,-99.99,,,0.00,weatherlink.com 1.10,2013-04-20 08:19:00,
2013-04-20 03:34:00,25.4,19.0,30.05,NNW,330,0.0,-999.0,78,-99.99,,,0.00,weatherlink.com 1.10,2013-04-20 08:34:00,
2013-04-20 03:49:00,24.9,19.0,30.06,WNW,293,1.0,-999.0,79,-99.99,,,0.00,weatherlink.com 1.10,2013-04-20 08:49:00,
2013-04-20 04:04:00,24.7,19.0,30.06,WNW,283,0.0,-999.0,79,-99.99,,,0.00,weatherlink.com 1.10,2013-04-20 09:04:00,
2013-04-20 04:19:00,24.6,19.0,30.07,West,269,0.0,-999.0,80,-99.99,,,0.00,weatherlink.com 1.10,2013-04-20 09:19:00,
2013-04-20 04:34:00,24.3,20.0,30.08,West,265,1.0,-999.0,82,-99.99,,,0.00,weatherlink.com 1.10,2013-04-20 09:34:00,
2013-04-20 04:49:00,24.2,20.0,30.09,West,272,2.0,-999.0,83,-99.99,,,0.00,weatherlink.com 1.10,2013-04-20 09:49:00,
2013-04-20 05:04:00,24.1,20.0,30.09,NNE,17,2.0,-999.0,83,-99.99,,,0.00,weatherlink.com 1.10,2013-04-20 10:04:00,
2013-04-20 05:19:00,24.1,20.0,30.10,North,355,4.0,-999.0,83,-99.99,,,0.00,weatherlink.com 1.10,2013-04-20 10:19:00,
2013-04-20 05:34:00,23.8,19.0,30.11,NNW,348,2.0,-999.0,83,-99.99,,,0.00,weatherlink.com 1.10,2013-04-20 10:34:00,
2013-04-20 05:50:00,23.6,19.0,30.12,NW,325,0.0,-999.0,82,-99.99,,,0.00,weatherlink.com 1.10,2013-04-20 10:50:00,
2013-04-20 06:05:00,23.4,19.0,30.13,NW,315,0.0,-999.0,84,-99.99,,,0.00,weatherlink.com 1.10,2013-04-20 11:05:00,
2013-04-20 06:20:00,23.2,19.0,30.14,NW,313,3.0,-999.0,84,-99.99,,,0.00,weatherlink.com 1.10,2013-04-20 11:20:00,
2013-04-20 06:35:00,23.3,19.0,30.15,West,272,0.0,-999.0,84,-99.99,,,0.00,weatherlink.com 1.10,2013-04-20 11:35:00,
2013-04-20 06:50:00,24.2,20.0,30.16,NW,319,0.0,-999.0,84,-99.99,,,0.00,weatherlink.com 1.10,2013-04-20 11:50:00,
2013-04-20 07:05:00,24.9,20.0,30.16,West,281,0.0,-999.0,83,-99.99,,,0.00,weatherlink.com 1.10,2013-04-20 12:05:00,
2013-04-20 07:20:00,25.4,20.0,30.17,West,278,2.0,-999.0,80,-99.99,,,0.00,weatherlink.com 1.10,2013-04-20 12:20:00,
2013-04-20 07:35:00,26.1,20.0,30.18,West,271,4.0,-999.0,78,-99.99,,,0.00,weatherlink.com 1.10,2013-04-20 12:35:00,
2013-04-20 07:50:00,27.1,20.0,30.19,West,267,0.0,-999.0,76,-99.99,,,0.00,weatherlink.com 1.10,2013-04-20 12:50:00,
2013-04-20 08:05:00,27.8,20.0,30.20,West,273,6.0,-999.0,72,-99.99,,,0.00,weatherlink.com 1.10,2013-04-20 13:05:00,
2013-04-20 08:20:00,29.6,20.0,30.20,NNW,337,0.0,-999.0,68,-99.99,,,0.00,weatherlink.com 1.10,2013-04-20 13:20:00,
2013-04-20 08:35:00,31.0,20.0,30.21,NNW,333,5.0,-999.0,63,-99.99,,,0.00,weatherlink.com 1.10,2013-04-20 13:35:00,
2013-04-20 08:50:00,31.8,20.0,30.22,NNE,22,2.0,-999.0,61,-99.99,,,0.00,weatherlink.com 1.10,2013-04-20 13:50:00,
2013-04-20 09:05:00,32.1,18.0,30.22,NNW,343,6.0,-999.0,56,-99.99,,,0.00,weatherlink.com 1.10,2013-04-20 14:05:00,
2013-04-20 09:20:00,32.4,17.0,30.23,WNW,282,7.0,-999.0,54,-99.99,,,0.00,weatherlink.com 1.10,2013-04-20 14:20:00,
2013-04-20 09:35:00,32.6,15.0,30.24,North,350,5.0,-999.0,48,-99.99,,,0.00,weatherlink.com 1.10,2013-04-20 14:35:00,
2013-04-20 09:50:00,33.7,14.0,30.24,West,269,5.0,-999.0,45,-99.99,,,0.00,weatherlink.com 1.10,2013-04-20 14:50:00,
2013-04-20 10:05:00,33.8,12.0,30.25,NW,309,2.0,-999.0,41,-99.99,,,0.00,weatherlink.com 1.10,2013-04-20 15:05:00,
2013-04-20 10:20:00,35.7,13.0,30.25,WNW,286,11.0,-999.0,40,-99.99,,,0.00,weatherlink.com 1.10,2013-04-20 15:20:00,
2013-04-20 10:35:00,35.7,12.0,30.26,West,268,4.0,-999.0,38,-99.99,,,0.00,weatherlink.com 1.10,2013-04-20 15:35:00,
2013-04-20 10:50:00,35.9,12.0,30.26,NW,323,2.0,-999.0,38,-99.99,,,0.00,weatherlink.com 1.10,2013-04-20 15:50:00,
2013-04-20 11:06:00,37.0,13.0,30.27,NNE,28,3.0,-999.0,38,-99.99,,,0.00,weatherlink.com 1.10,2013-04-20 16:06:00,
2013-04-20 11:21:00,37.4,14.0,30.28,WNW,298,4.0,-999.0,39,-99.99,,,0.00,weatherlink.com 1.10,2013-04-20 16:21:00,
2013-04-20 11:36:00,38.1,13.0,30.28,NNW,342,5.0,-999.0,35,-99.99,,,0.00,weatherlink.com 1.10,2013-04-20 16:36:00,
2013-04-20 11:51:00,38.4,14.0,30.28,NW,323,9.0,-999.0,37,-99.99,,,0.00,weatherlink.com 1.10,2013-04-20 16:51:00,
2013-04-20 12:06:00,39.3,15.0,30.28,WSW,248,3.0,-999.0,37,-99.99,,,0.00,weatherlink.com 1.10,2013-04-20 17:06:00,
2013-04-20 12:21:00,39.1,13.0,30.28,NW,325,4.0,-999.0,34,-99.99,,,0.00,weatherlink.com 1.10,2013-04-20 17:21:00,
2013-04-20 12:36:00,40.0,14.0,30.28,West,275,2.0,-999.0,35,-99.99,,,0.00,weatherlink.com 1.10,2013-04-20 17:36:00,
2013-04-20 12:51:00,40.0,13.0,30.29,NE,43,0.0,-999.0,33,-99.99,,,0.00,weatherlink.com 1.10,2013-04-20 17:51:00,
2013-04-20 13:06:00,39.3,11.0,30.30,West,278,5.0,-999.0,31,-99.99,,,0.00,weatherlink.com 1.10,2013-04-20 18:06:00,
2013-04-20 13:21:00,39.6,12.0,30.30,West,266,3.0,-999.0,32,-99.99,,,0.00,weatherlink.com 1.10,2013-04-20 18:21:00,
2013-04-20 13:36:00,41.0,12.0,30.30,WNW,290,5.0,-999.0,30,-99.99,,,0.00,weatherlink.com 1.10,2013-04-20 18:36:00,
2013-04-20 13:51:00,40.8,10.0,30.30,WSW,252,0.0,-999.0,28,-99.99,,,0.00,weatherlink.com 1.10,2013-04-20 18:51:00,
2013-04-20 14:06:00,40.9,14.0,30.30,WSW,257,6.0,-999.0,33,-99.99,,,0.00,weatherlink.com 1.10,2013-04-20 19:06:00,
2013-04-20 14:21:00,42.0,12.0,30.31,WNW,295,3.0,-999.0,29,-99.99,,,0.00,weatherlink.com 1.10,2013-04-20 19:21:00,
2013-04-20 14:36:00,42.2,10.0,30.31,North,355,7.0,-999.0,27,-99.99,,,0.00,weatherlink.com 1.10,2013-04-20 19:36:00,
2013-04-20 14:51:00,43.5,11.0,30.31,NNW,333,1.0,-999.0,27,-99.99,,,0.00,weatherlink.com 1.10,2013-04-20 19:51:00,
2013-04-20 15:06:00,43.2,13.0,30.31,WSW,253,5.0,-999.0,29,-99.99,,,0.00,weatherlink.com 1.10,2013-04-20 20:06:00,
2013-04-20 15:21:00,42.6,12.0,30.31,West,269,3.0,-999.0,29,-99.99,,,0.00,weatherlink.com 1.10,2013-04-20 20:21:00,
2013-04-20 15:36:00,44.4,11.0,30.31,NNW,332,5.0,-999.0,26,-99.99,,,0.00,weatherlink.com 1.10,2013-04-20 20:36:00,
2013-04-20 15:51:00,45.1,12.0,30.32,NNW,336,2.0,-999.0,26,-99.99,,,0.00,weatherlink.com 1.10,2013-04-20 20:51:00,
2013-04-20 16:06:00,44.4,10.0,30.32,NW,321,4.0,-999.0,24,-99.99,,,0.00,weatherlink.com 1.10,2013-04-20 21:06:00,
2013-04-20 16:21:00,43.8,12.0,30.32,West,272,0.0,-999.0,27,-99.99,,,0.00,weatherlink.com 1.10,2013-04-20 21:21:00,
2013-04-20 16:36:00,44.9,11.0,30.32,North,355,3.0,-999.0,25,-99.99,,,0.00,weatherlink.com 1.10,2013-04-20 21:36:00,
2013-04-20 16:51:00,45.5,10.0,30.32,West,281,3.0,-999.0,24,-99.99,,,0.00,weatherlink.com 1.10,2013-04-20 21:51:00,
2013-04-20 17:06:00,44.4,8.0,30.32,North,5,0.0,-999.0,22,-99.99,,,0.00,weatherlink.com 1.10,2013-04-20 22:06:00,
2013-04-20 17:21:00,45.5,10.0,30.33,NNW,341,0.0,-999.0,23,-99.99,,,0.00,weatherlink.com 1.10,2013-04-20 22:21:00,
2013-04-20 17:36:00,45.3,9.0,30.32,West,264,9.0,-999.0,23,-99.99,,,0.00,weatherlink.com 1.10,2013-04-20 22:36:00,
2013-04-20 17:51:00,45.3,9.0,30.33,WSW,256,3.0,-999.0,23,-99.99,,,0.00,weatherlink.com 1.10,2013-04-20 22:51:00,
2013-04-20 18:06:00,44.8,11.0,30.33,NE,36,3.0,-999.0,25,-99.99,,,0.00,weatherlink.com 1.10,2013-04-20 23:06:00,
2013-04-20 18:21:00,44.6,11.0,30.33,NNE,18,6.0,-999.0,25,-99.99,,,0.00,weatherlink.com 1.10,2013-04-20 23:21:00,
2013-04-20 18:36:00,44.8,10.0,30.34,North,351,0.0,-999.0,24,-99.99,,,0.00,weatherlink.com 1.10,2013-04-20 23:36:00,
2013-04-20 18:51:00,44.4,19.0,30.34,North,351,1.0,-999.0,36,-99.99,,,0.00,weatherlink.com 1.10,2013-04-20 23:51:00,
2013-04-20 19:06:00,43.1,14.0,30.35,NNW,346,0.0,-999.0,31,-99.99,,,0.00,weatherlink.com 1.10,2013-04-21 00:06:00,
2013-04-20 19:21:00,41.8,14.0,30.35,NNW,346,0.0,-999.0,33,-99.99,,,0.00,weatherlink.com 1.10,2013-04-21 00:21:00,
2013-04-20 19:36:00,39.8,12.0,30.35,North,351,0.0,-999.0,32,-99.99,,,0.00,weatherlink.com 1.10,2013-04-21 00:36:00,
2013-04-20 19:51:00,38.9,10.0,30.36,North,351,0.0,-999.0,30,-99.99,,,0.00,weatherlink.com 1.10,2013-04-21 00:51:00,
2013-04-20 20:06:00,38.6,11.0,30.36,North,351,0.0,-999.0,32,-99.99,,,0.00,weatherlink.com 1.10,2013-04-21 01:06:00,
2013-04-20 20:21:00,37.5,13.0,30.37,North,360,0.0,-999.0,37,-99.99,,,0.00,weatherlink.com 1.10,2013-04-21 01:21:00,
2013-04-20 20:37:00,36.6,15.0,30.38,NE,42,0.0,-999.0,41,-99.99,,,0.00,weatherlink.com 1.10,2013-04-21 01:37:00,
2013-04-20 20:52:00,35.8,15.0,30.39,ENE,66,0.0,-999.0,42,-99.99,,,0.00,weatherlink.com 1.10,2013-04-21 01:52:00,
2013-04-20 21:07:00,35.3,14.0,30.40,ENE,78,0.0,-999.0,41,-99.99,,,0.00,weatherlink.com 1.10,2013-04-21 02:07:00,
2013-04-20 21:22:00,35.0,14.0,30.40,East,84,1.0,-999.0,42,-99.99,,,0.00,weatherlink.com 1.10,2013-04-21 02:22:00,
2013-04-20 21:37:00,34.4,14.0,30.41,East,84,0.0,-999.0,43,-99.99,,,0.00,weatherlink.com 1.10,2013-04-21 02:37:00,
2013-04-20 21:52:00,34.0,14.0,30.41,NE,50,0.0,-999.0,44,-99.99,,,0.00,weatherlink.com 1.10,2013-04-21 02:52:00,
2013-04-20 22:07:00,33.8,14.0,30.41,ENE,61,2.0,-999.0,45,-99.99,,,0.00,weatherlink.com 1.10,2013-04-21 03:07:00,
2013-04-20 22:22:00,33.6,15.0,30.41,ENE,74,1.0,-999.0,46,-99.99,,,0.00,weatherlink.com 1.10,2013-04-21 03:22:00,
2013-04-20 22:37:00,33.4,15.0,30.41,East,99,1.0,-999.0,48,-99.99,,,0.00,weatherlink.com 1.10,2013-04-21 03:37:00,
2013-04-20 22:52:00,33.1,16.0,30.41,ESE,105,4.0,-999.0,49,-99.99,,,0.00,weatherlink.com 1.10,2013-04-21 03:52:00,
2013-04-20 23:07:00,33.2,16.0,30.41,ESE,113,4.0,-999.0,49,-99.99,,,0.00,weatherlink.com 1.10,2013-04-21 04:07:00,
2013-04-20 23:22:00,33.4,16.0,30.41,SE,139,0.0,-999.0,49,-99.99,,,0.00,weatherlink.com 1.10,2013-04-21 04:22:00,
2013-04-20 23:37:00,33.4,16.0,30.41,SE,128,0.0,-999.0,50,-99.99,,,0.00,weatherlink.com 1.10,2013-04-21 04:37:00,
2013-04-20 23:52:00,33.2,17.0,30.41,ESE,117,1.0,-999.0,51,-99.99,,,0.00,weatherlink.com 1.10,2013-04-21 04:52:00,